Погода в Какине

Россия / Нижегородская область     55°10′39″N   44°52′24″E
темп.,
°C
ветер,
м/с
пор.,
м/с
влажн.,
%
обл.,
%
осадки,
мм/ч
давл.,
гПа
погр.,
м
20 января, ср
ср2000:00−17зсз2497100 0.3 1016131
03:00−17з2597100 0.7 1016179
06:00−16з3696100 0.4 1015212
09:00−16з3796100 0.6 1016211
12:00−14з3594100 0.3 1017296
15:00−14з369599 0.5 1016251
18:00−14з489588 0.1 1018195
21:00−15з489682 0.1 1019151
21 января, чт
чт2100:00−16з469788 0.1 1019119
03:00−16з499792 0.1 1020159
06:00−17зюз499793 0.0 1020176
09:00−15з599494 0.1 1021251
12:00−14зюз5991100 0.0 1020269
15:00−13юз4990100 0.0 1019273
18:00−13юз61190100 0.0 1017287
21:00−12юз61194100 1.3 1015518
22 января, пт
пт2200:00−12зюз3895100 0.9 1015461
03:00−13зюз3395100 1.0 101564
06:00−14зюз2296100 0.0 101520
09:00−13юз2294100 0.0 101626
12:00−10ю3594100 0.0 1016171
15:00−7ю4695100 0.1 1015245
18:00−4ю4797100 0.6 1014231
21:00+1юз48100100 1.0 1014255
23 января, сб
сб2300:000зюз51197100 0.7 1013564
03:00+1юз51196100 0.7 1012549
06:00+1ююз61199100 0.1 1011350
09:00+1юз81498100 0.4 1012541
12:00+1юз71396100 0.1 1013619
15:00+1юз51296100 0.1 1013600
18:00+1юз51095100 0.0 1014529
21:00+1юз41196100 0.0 1014459
24 января, вс
вс2400:00+1юз61298100 0.0 1014453
03:00+1ююз51198100 0.1 1014292
06:00+1юз51199100 0.3 1014333
09:00+1юз51099100 0.4 1015267
12:00+1юз510100100 0.0 1016327
15:00+1ююз51098100 0.0 1016283
18:00+1ююз51098100 0.0 1017312
21:00+1ююз611100100 0.3 1018356